カタログに戻る

STARLINK-1226

運用中通信VLEO
NORAD 45229·PAYLOAD·🇺🇸 United States

打ち上げ Feb 17, 2020 から Cape Canaveral Space Force Station

Loading…

次のパス (今後24時間)

TLE

最新Source: CelesTrak SupGP

元期: Sep 14, 2026, 20:36 UTC

1 45229C 20012BD  26257.85881944  .00047902  00000+0  69789-3 0  2576
2 45229  53.1491 180.8899 0002818 113.7390 235.8535 15.55071045    18

AllMySatでSTARLINK-1226をリアルタイム追跡

Download on the App Store